When you browse on this site, cookies collect data to enhance your experience and personalize the content and advertising you see.
Visit our Privacy Policy to learn more. By continuing to use the site, you agree to this use of cookies and data.

Hourly Weather Shkoder

Today, 4 July, Saturday

Time Temperature Precipitation Wind Pressure Humidity
00:00 +24°C° 0.1 mm 2 mps 738 mmHg 75%
01:00 +23°C° 0 mm 2 mps 738 mmHg 77%
02:00 +23°C° 0 mm 2 mps 738 mmHg 78%
03:00 +21°C° 0 mm 3 mps 738 mmHg 79%
04:00 +21°C° 0 mm 3 mps 738 mmHg 80%
05:00 +22°C° 0 mm 3 mps 738 mmHg 77%
06:00 +24°C° 0 mm 3 mps 738 mmHg 74%
07:00 +26°C° 0 mm 3 mps 739 mmHg 72%
08:00 +27°C° 0.2 mm 2 mps 739 mmHg 67%
09:00 +28°C° 0.2 mm 2 mps 739 mmHg 62%
10:00 +30°C° 0.2 mm 2 mps 739 mmHg 57%
11:00 +31°C° 0.3 mm 2 mps 738 mmHg 54%
12:00 +31°C° 0.3 mm 2 mps 738 mmHg 51%
13:00 +32°C° 0.3 mm 2 mps 738 mmHg 48%
14:00 +32°C° 0.3 mm 2 mps 738 mmHg 48%
15:00 +32°C° 0.3 mm 2 mps 738 mmHg 49%
16:00 +32°C° 0.3 mm 2 mps 737 mmHg 49%
17:00 +30°C° 0.1 mm 2 mps 737 mmHg 55%
18:00 +28°C° 0.1 mm 2 mps 737 mmHg 62%
19:00 +27°C° 0.1 mm 2 mps 738 mmHg 68%
20:00 +25°C° 0.1 mm 2 mps 738 mmHg 71%
21:00 +24°C° 0.1 mm 2 mps 738 mmHg 73%
22:00 +23°C° 0.1 mm 2 mps 738 mmHg 76%
23:00 +23°C° 0 mm 2 mps 738 mmHg 77%

Tomorrow, 5 July, Sunday

Time Temperature Precipitation Wind Pressure Humidity
00:00 +21°C° 0 mm 3 mps 738 mmHg 78%
01:00 +21°C° 0 mm 3 mps 738 mmHg 78%
02:00 +21°C° 0 mm 3 mps 738 mmHg 79%
03:00 +20°C° 0 mm 3 mps 738 mmHg 80%
04:00 +20°C° 0 mm 3 mps 737 mmHg 81%
05:00 +21°C° 0 mm 3 mps 737 mmHg 78%
06:00 +24°C° 0 mm 3 mps 738 mmHg 75%
07:00 +25°C° 0 mm 3 mps 738 mmHg 71%
08:00 +26°C° 0 mm 3 mps 738 mmHg 66%
09:00 +28°C° 0 mm 4 mps 738 mmHg 61%
10:00 +29°C° 0 mm 4 mps 738 mmHg 56%
11:00 +30°C° 0.1 mm 4 mps 738 mmHg 54%
12:00 +30°C° 0.1 mm 4 mps 738 mmHg 53%
13:00 +32°C° 0.1 mm 4 mps 737 mmHg 51%
14:00 +32°C° 0.1 mm 4 mps 737 mmHg 52%
15:00 +32°C° 0.1 mm 4 mps 737 mmHg 53%
16:00 +30°C° 0.1 mm 4 mps 736 mmHg 54%
17:00 +29°C° 0 mm 3 mps 736 mmHg 59%
18:00 +28°C° 0 mm 3 mps 737 mmHg 65%
19:00 +26°C° 0 mm 3 mps 737 mmHg 70%
20:00 +25°C° 0 mm 3 mps 737 mmHg 72%
21:00 +24°C° 0 mm 3 mps 737 mmHg 74%
22:00 +22°C° 0 mm 3 mps 737 mmHg 76%
23:00 +22°C° 0 mm 3 mps 737 mmHg 77%

Day after tomorrow, 6 July, Monday

Time Temperature Precipitation Wind Pressure Humidity
00:00 +22°C° 0 mm 3 mps 736 mmHg 78%
01:00 +21°C° 0 mm 3 mps 736 mmHg 79%
02:00 +21°C° 0 mm 3 mps 736 mmHg 79%
03:00 +20°C° 0 mm 3 mps 735 mmHg 79%
04:00 +20°C° 0 mm 3 mps 735 mmHg 79%
05:00 +21°C° 0 mm 3 mps 735 mmHg 75%
06:00 +24°C° 0 mm 3 mps 735 mmHg 72%
07:00 +25°C° 0 mm 3 mps 735 mmHg 68%
08:00 +26°C° 0 mm 3 mps 735 mmHg 65%
09:00 +28°C° 0 mm 3 mps 735 mmHg 61%
10:00 +29°C° 0 mm 3 mps 735 mmHg 57%
11:00 +30°C° 0.1 mm 3 mps 735 mmHg 55%
12:00 +31°C° 0.1 mm 3 mps 734 mmHg 53%
13:00 +31°C° 0.1 mm 3 mps 734 mmHg 51%
14:00 +31°C° 0.4 mm 3 mps 734 mmHg 53%
15:00 +31°C° 0.4 mm 3 mps 734 mmHg 55%
16:00 +30°C° 0.4 mm 3 mps 733 mmHg 56%
17:00 +29°C° 0.2 mm 2 mps 733 mmHg 62%
18:00 +28°C° 0.2 mm 2 mps 733 mmHg 68%
19:00 +26°C° 0.2 mm 2 mps 733 mmHg 74%
20:00 +25°C° 0 mm 2 mps 733 mmHg 75%
21:00 +24°C° 0 mm 2 mps 733 mmHg 77%
22:00 +24°C° 0 mm 2 mps 733 mmHg 79%
23:00 +23°C° 0 mm 2 mps 733 mmHg 79%

7 July, Tuesday

Time Temperature Precipitation Wind Pressure Humidity
00:00 +23°C° 0 mm 2 mps 733 mmHg 79%
01:00 +23°C° 0 mm 2 mps 733 mmHg 80%
02:00 +21°C° 0 mm 2 mps 733 mmHg 80%
03:00 +21°C° 0 mm 2 mps 732 mmHg 80%
04:00 +21°C° 0 mm 2 mps 732 mmHg 80%
05:00 +23°C° 0 mm 2 mps 733 mmHg 77%
06:00 +25°C° 0 mm 2 mps 733 mmHg 74%
07:00 +26°C° 0 mm 2 mps 734 mmHg 70%
08:00 +27°C° 0 mm 3 mps 734 mmHg 65%
09:00 +29°C° 0 mm 3 mps 734 mmHg 60%
10:00 +30°C° 0 mm 3 mps 735 mmHg 55%
11:00 +30°C° 0.1 mm 4 mps 735 mmHg 54%
12:00 +30°C° 0.1 mm 4 mps 735 mmHg 54%
13:00 +32°C° 0.1 mm 4 mps 735 mmHg 53%
14:00 +30°C° 0.1 mm 4 mps 735 mmHg 55%
15:00 +29°C° 0.1 mm 5 mps 735 mmHg 57%
16:00 +28°C° 0.1 mm 5 mps 735 mmHg 58%
17:00 +26°C° 0 mm 5 mps 736 mmHg 62%
18:00 +25°C° 0 mm 4 mps 736 mmHg 65%
19:00 +22°C° 0 mm 4 mps 737 mmHg 69%
20:00 +21°C° 0 mm 4 mps 737 mmHg 69%
21:00 +20°C° 0 mm 4 mps 738 mmHg 70%
22:00 +19°C° 0 mm 4 mps 738 mmHg 70%
23:00 +18°C° 0 mm 4 mps 738 mmHg 71%

8 July, Wednesday

Time Temperature Precipitation Wind Pressure Humidity
00:00 +18°C° 0 mm 4 mps 738 mmHg 72%
01:00 +17°C° 0 mm 4 mps 738 mmHg 72%
02:00 +17°C° 0 mm 4 mps 738 mmHg 72%
03:00 +15°C° 0 mm 4 mps 739 mmHg 71%
04:00 +15°C° 0 mm 4 mps 739 mmHg 71%
05:00 +17°C° 0 mm 4 mps 739 mmHg 67%
06:00 +18°C° 0 mm 4 mps 739 mmHg 63%
07:00 +19°C° 0 mm 4 mps 739 mmHg 59%
08:00 +21°C° 0 mm 4 mps 740 mmHg 54%
09:00 +22°C° 0 mm 4 mps 740 mmHg 50%
10:00 +25°C° 0 mm 4 mps 740 mmHg 45%
11:00 +26°C° 0 mm 4 mps 740 mmHg 44%
12:00 +27°C° 0 mm 4 mps 740 mmHg 43%
13:00 +28°C° 0 mm 4 mps 740 mmHg 42%
14:00 +28°C° 0 mm 4 mps 740 mmHg 43%
15:00 +28°C° 0 mm 4 mps 739 mmHg 44%
16:00 +28°C° 0 mm 4 mps 739 mmHg 45%
17:00 +26°C° 0 mm 3 mps 740 mmHg 51%
18:00 +24°C° 0 mm 3 mps 740 mmHg 57%
19:00 +22°C° 0 mm 3 mps 740 mmHg 63%
20:00 +21°C° 0 mm 3 mps 740 mmHg 64%
21:00 +20°C° 0 mm 3 mps 740 mmHg 65%
22:00 +19°C° 0 mm 3 mps 741 mmHg 67%
23:00 +18°C° 0 mm 3 mps 741 mmHg 68%

9 July, Thursday

Time Temperature Precipitation Wind Pressure Humidity
00:00 +18°C° 0 mm 3 mps 741 mmHg 70%
01:00 +17°C° 0 mm 3 mps 741 mmHg 72%
02:00 +17°C° 0 mm 3 mps 740 mmHg 72%
03:00 +17°C° 0 mm 3 mps 740 mmHg 73%
04:00 +16°C° 0 mm 3 mps 740 mmHg 74%
05:00 +18°C° 0 mm 3 mps 740 mmHg 70%
06:00 +20°C° 0 mm 3 mps 741 mmHg 65%
07:00 +23°C° 0 mm 2 mps 741 mmHg 61%
08:00 +24°C° 0 mm 2 mps 741 mmHg 55%
09:00 +26°C° 0 mm 2 mps 741 mmHg 49%
10:00 +28°C° 0 mm 2 mps 741 mmHg 43%
11:00 +29°C° 0 mm 2 mps 741 mmHg 42%
12:00 +30°C° 0 mm 2 mps 740 mmHg 41%
13:00 +31°C° 0 mm 1 mps 740 mmHg 39%
14:00 +31°C° 0 mm 2 mps 740 mmHg 40%
15:00 +31°C° 0 mm 2 mps 740 mmHg 41%
16:00 +31°C° 0 mm 2 mps 740 mmHg 41%
17:00 +29°C° 0 mm 1 mps 739 mmHg 48%
18:00 +27°C° 0 mm 1 mps 739 mmHg 55%
19:00 +25°C° 0 mm 1 mps 739 mmHg 63%
20:00 +24°C° 0 mm 1 mps 739 mmHg 64%
21:00 +23°C° 0 mm 1 mps 739 mmHg 65%
22:00 +23°C° 0 mm 1 mps 740 mmHg 66%
23:00 +22°C° 0 mm 1 mps 740 mmHg 66%
Show more